User: anonymous   Login
Location: Unspecified
(0.0000°N, 0.0000°E)
Time: 12:51:58
(UTC+00:00)
Language:

Nimbus 4 - Orbit

View from above orbital plane
View from above orbital plane
View from above satellite
View from above satellite

Ground track
Ground track

The orbit data is extracted from the following two-line orbital elements,

1  4362U 70025A   17234.26708549 -.00000040 +00000-0 +87924-5 0  9997
2  4362 100.0093 138.4090 0006825 286.8741 181.8657 13.44587517323966
Epoch (UTC): 22 August 2017 06:24:36
Eccentricity: 0.0006825
inclination: 100.0093°
perigee height: 1087 km
apogee height: 1097 km
right ascension of ascending node: 138.4090°
argument of perigee: 286.8741°
revolutions per day: 13.44587517
mean anomaly at epoch: 181.8657°
orbit number at epoch: 32396

The dashed part of the orbit path shows where the satellite is in the earth's shadow,  

DLR